Torna al catalogo

KUIPER-00049

AttivoComunicazioniLEO
NORAD 64509·PAYLOAD·🇺🇸 United States

Lanciato Jun 23, 2025 da Cape Canaveral Space Force Station

Loading…

Prossimi Passaggi (prossime 24 ore)

TLE

AggiornatoSource: CelesTrak SupGP

Epoca: Sep 14, 2026, 20:10 UTC

1 64509C 25134K   26257.84064815 -.00012995  00000+0 -17015-2 0  2577
2 64509  51.8984 111.6108 0000758 104.9369   2.5782 14.79934838    12

Traccia KUIPER-00049 in tempo reale con AllMySat

Download on the App Store